Skip Page Navigation
NASA JPL Caltech
NASA Logo - Jet Propulsion Laboratory + View the NASA Portal
+ Center for Near-Earth Object Studies
JPL Home Earth Solar System Stars & Galaxies Technology
JPL Solar System Dynamics
BODIES ORBITS EPHEMERIDES TOOLS PHYSICAL DATA DISCOVERY FAQ SITE MAP
JPL Small-Body Database Browser
Search: [ help ]  
472232 (2014 FW71)
Classification: TransNeptunian Object          SPK-ID: 2472232
Ephemeris | Orbit Diagram | Orbital Elements | Mission Design | Physical Parameters | Discovery Circumstances ]

[ show orbit diagram ]
Orbital Elements at Epoch 2459200.5 (2020-Dec-17.0) TDB
Reference: JPL 12 (heliocentric ecliptic J2000)
 Element Value Uncertainty (1-sigma)   Units 
e .06092361463900696 5.7005e-05  
a 42.9571643092582 0.0020801 au
q 40.34005858489645 0.0035345 au
i 13.8951098164446 0.00012461 deg
node 247.6189862540032 0.00074508 deg
peri 37.64362843471307 0.035714 deg
M 281.5916027430564 0.033289 deg
tp 2481598.637690392261
(2082-Apr-14.13769039)
7.8922 TDB
period 102837.5767217605
281.55
7.4693
0.02045
d
yr
n .003500665918782036 2.5426e-07 deg/d
Q 45.57427003361994 0.0022068 au
  Orbit Determination Parameters
   # obs. used (total)      92  
   data-arc span      2936 days (8.04 yr)  
   first obs. used      2012-04-13  
   last obs. used      2020-04-27  
   planetary ephem.      DE441  
   SB-pert. ephem.      SB441-N16  
   condition code      3  
   norm. resid. RMS      .454  
   source      ORB  
   producer      Otto Matic  
   solution date      2021-Apr-14 16:28:31  

Additional Information
 Earth MOID = 39.3328 au 
 Jupiter MOID = 35.1717 au 
 T_jup = 5.689 
[ show covariance matrix ]

Ephemeris | Orbit Diagram | Orbital Elements | Mission Design | Physical Parameters | Discovery Circumstances ]

Physical Parameter Table
Parameter Symbol Value Units Sigma Reference Notes
absolute magnitude H 6.02   n/a E2021B25  

472232 (2014 FW71)          Discovered 2014-Mar-27 by Cerro Tololo at Cerro Tololo
Reference: Last Updated: 2016-08-22
Ephemeris | Orbit Diagram | Orbital Elements | Mission Design | Physical Parameters | Discovery Circumstances ]
ABOUT SSD CREDITS/AWARDS PRIVACY/COPYRIGHT GLOSSARY LINKS
FirstGov 2021-Apr-17 09:27 UT
(server date/time)  
NASA Home Page
Site Manager:   Ryan S. Park
Webmaster  Alan B. Chamberlin